TimeEST,TemperatureF,Dew PointF,Humidity,Sea Level PressureIn,VisibilityMPH,Wind Direction,Wind SpeedMPH,Gust SpeedMPH,PrecipitationIn,Events,Conditions,WindDirDegrees,DateUTC
12:53 AM,44.1,42.1,93,30.10,7.0,Calm,Calm,-,N/A,,Clear,0,2012-11-21 05:53:00
1:53 AM,43.0,41.0,93,30.10,8.0,Calm,Calm,-,N/A,,Clear,0,2012-11-21 06:53:00
2:53 AM,42.1,39.9,92,30.09,7.0,Calm,Calm,-,N/A,,Clear,0,2012-11-21 07:53:00
3:53 AM,41.0,39.9,96,30.10,8.0,Calm,Calm,-,N/A,,Clear,0,2012-11-21 08:53:00
4:53 AM,41.0,39.0,93,30.10,7.0,Calm,Calm,-,N/A,,Clear,0,2012-11-21 09:53:00
5:53 AM,39.9,37.9,93,30.12,8.0,Calm,Calm,-,N/A,,Clear,0,2012-11-21 10:53:00
6:53 AM,39.9,37.9,93,30.13,8.0,Calm,Calm,-,N/A,,Clear,0,2012-11-21 11:53:00
7:53 AM,43.0,41.0,93,30.15,7.0,Calm,Calm,-,N/A,,Clear,0,2012-11-21 12:53:00
8:53 AM,48.0,44.1,86,30.17,8.0,Calm,Calm,-,N/A,,Clear,0,2012-11-21 13:53:00
9:53 AM,54.0,45.0,72,30.18,10.0,Variable,3.5,-,N/A,,Clear,0,2012-11-21 14:53:00
10:53 AM,57.9,44.1,60,30.17,10.0,East,5.8,-,N/A,,Clear,80,2012-11-21 15:53:00
11:53 AM,62.1,39.0,43,30.15,10.0,Variable,4.6,-,N/A,,Clear,0,2012-11-21 16:53:00
12:53 PM,64.0,37.0,37,30.12,10.0,East,8.1,-,N/A,,Clear,80,2012-11-21 17:53:00
1:53 PM,64.0,36.0,35,30.11,10.0,ENE,10.4,-,N/A,,Clear,70,2012-11-21 18:53:00
2:53 PM,66.9,37.0,33,30.10,10.0,Calm,Calm,-,N/A,,Clear,0,2012-11-21 19:53:00
3:53 PM,66.0,36.0,33,30.10,10.0,Variable,5.8,-,N/A,,Clear,0,2012-11-21 20:53:00
4:53 PM,64.0,36.0,35,30.11,10.0,Calm,Calm,-,N/A,,Clear,0,2012-11-21 21:53:00
5:53 PM,55.9,39.0,53,30.12,10.0,Calm,Calm,-,N/A,,Clear,0,2012-11-21 22:53:00
6:53 PM,51.1,41.0,68,30.14,10.0,Calm,Calm,-,N/A,,Clear,0,2012-11-21 23:53:00
7:53 PM,48.0,41.0,77,30.15,10.0,Calm,Calm,-,N/A,,Clear,0,2012-11-22 00:53:00
8:53 PM,46.9,39.9,77,30.15,9.0,Calm,Calm,-,N/A,,Clear,0,2012-11-22 01:53:00
9:53 PM,45.0,39.9,82,30.17,10.0,Calm,Calm,-,N/A,,Clear,0,2012-11-22 02:53:00
10:53 PM,44.1,39.9,85,30.18,10.0,Calm,Calm,-,N/A,,Clear,0,2012-11-22 03:53:00
11:53 PM,43.0,39.0,86,30.19,8.0,Calm,Calm,-,N/A,,Clear,0,2012-11-22 04:53:00